KONA

Details ICAO KONA
Name WINONA MUNI MAX CONRAD FLD
Region United States
Timezone America/Chicago (UTC-5.0)
Plans Departing 3
Arriving 8
Stats Elevation 656 ft / 200 m (AMSL)
Location 44.076133° -91.707030°
Runways 2
Magnetic Variation 0.992° W
Sunrise 2018-05-27 10:31:12 UTC / 2018-05-27 05:31:12 Local
Sunset 2018-05-28 01:39:42 UTC / 2018-05-27 20:39:42 Local
Advertisement - Login to hide

Runways

ID Width Length Bearing (true) Bearing (mag) Surface Threshold Offset Overrun Length
12 100 ft / 30 m 5,191 ft / 1,582 m 119.47° 120.46° Asphalt 0 ft / 0 m 0 ft / 0 m
17 75 ft / 23 m 2,555 ft / 779 m 175.63° 176.62° Asphalt 0 ft / 0 m 0 ft / 0 m
30 100 ft / 30 m 5,191 ft / 1,582 m 299.48° 300.47° Asphalt 0 ft / 0 m 0 ft / 0 m
35 75 ft / 23 m 2,555 ft / 779 m 355.63° 356.62° Asphalt 150 ft / 46 m 0 ft / 0 m

Approach Navaids

Runway Type Ident Frequency Range Bearing (true) Bearing (mag) Slope Elevation
30 Localiser IONA 109.35 MHz 18 nm / 33 km 299.48° 300.47° - 656 ft / 200 m (AMSL)
30 DME IONA 109.35 MHz 18 nm / 33 km - - - 656 ft / 200 m (AMSL)

Map

Weather


0- 5 10 15 20 25 30 35+ Temperature / ° C

Clouds and Precipitation
Forecast for 2018-05-27 18:00 UTC. Updated an hour ago

Ground ~20,000 ft ~40,000 ft Winds

METAR

KONA 271835Z AUTO 00000KT 10SM CLR 32/16 A2987 RMK AO2 PWINO

TAF

Not found

Frequencies

Unicom 122.80 MHz CTAF/UNICOM
Warning: Do not use this data for real-world aviation or navigation. No guarantee of current accuracy is given.